Location: Alpha Ridge Park
(39.3209°N, 76.9128°W)
Time: 16:02:19
(UTC-05:00)

Envisat - Visible Passes

Search period start: 19 January 2022 00:00
Search period end: 29 January 2022 00:00
Orbit: 764 x 766 km, 98.2° (Epoch: 19 January)

Date Brightness Start Highest point End Pass type
(mag) Time Alt. Az. Time Alt. Az. Time Alt. Az.
19 Jan 5.7 03:46:14 10° ENE 03:49:03 15° E 03:51:51 10° SE visible
19 Jan 2.9 05:23:26 10° N 05:28:26 60° WNW 05:33:25 10° SSW visible
20 Jan 3.4 04:46:34 10° NNE 04:51:36 60° E 04:56:36 10° S visible
20 Jan 4.4 06:27:02 10° NNW 06:30:05 16° WNW 06:33:08 10° W visible
20 Jan 6.2 17:42:22 10° WSW 17:44:24 12° W 17:46:26 10° WNW visible
21 Jan 4.9 04:10:19 10° NE 04:14:34 26° E 04:18:46 10° SSE visible
21 Jan 3.5 05:49:02 10° N 05:53:35 34° WNW 05:58:08 10° SW visible
22 Jan 6.0 03:35:54 10° ENE 03:37:19 11° E 03:38:46 10° ESE visible
22 Jan 2.8 05:11:47 10° N 05:16:52 77° WNW 05:21:56 10° SSW visible
23 Jan 3.9 04:35:05 10° NNE 04:39:59 46° E 04:44:50 10° S visible
23 Jan 4.2 06:14:58 10° NNW 06:18:37 20° WNW 06:22:17 10° WSW visible
24 Jan 5.3 03:59:07 10° NE 04:02:53 21° E 04:06:37 10° SE visible
24 Jan 3.2 05:37:15 10° N 05:42:03 43° WNW 05:46:50 10° SW visible
25 Jan 2.9 05:00:11 10° NNE 05:05:18 83° ESE 05:10:22 10° SSW visible
25 Jan 4.7 06:41:45 10° NW 06:43:34 12° WNW 06:45:23 10° W visible
26 Jan 4.4 04:23:40 10° NNE 04:28:20 36° E 04:32:59 10° SSE visible
26 Jan 3.9 06:03:02 10° NNW 06:07:09 25° WNW 06:11:15 10° WSW visible
27 Jan 5.6 03:48:07 10° NE 03:51:11 16° E 03:54:14 10° SE visible
27 Jan 3.0 05:25:33 10° N 05:30:31 56° WNW 05:35:28 10° SSW visible
28 Jan 3.3 04:48:38 10° NNE 04:53:41 65° E 04:58:43 10° S visible
28 Jan 4.5 06:29:17 10° NNW 06:32:08 15° WNW 06:34:58 10° W visible
